Vertical_Velocity
-2 -1 -0 3 16 10 -3 -13 -2 0 1 -1 1 -2 -7 6 -1 7 0 8 -2 -3 -1 -0 -2 -1 0 -2 -1 -1 0 -1 -1 -2 -1 -1 -0 -1 -1 -1 -1 -2 -2 -1 -2 -1 -2 -2 -2
3 -3 1 2 11 8 -9 -5 -0 -5 0 -5 3 -4 2 6 -2 -1 -1 1 10 -4 -2 0 0 -1 0 0 -1 -1 -1 -1 -1 -1 -1 -2 -1 -2 -2 -1 -2 -1 -2 -2 -1 -0 -1 -1 -1
-6 -2 14 3 2 -2 -6 -3 -2 1 -3 -0 1 2 2 4 -0 -2 1 10 -8 2 0 -1 -1 -1 -0 -1 0 -1 -1 -1 -1 -1 -1 -1 -2 -1 -1 -1 -2 -1 -2 -1 -2 -1 -1 -1 -1
1 5 -4 15 -5 -15 -5 -0 -4 3 3 2 3 3 -3 1 -1 3 -1 -4 4 1 0 -1 -2 -0 -1 -0 0 -2 -0 -1 -1 -1 -1 -0 -1 -1 -0 -1 -1 -1 -1 -1 -0 -2 -0 -1 -2
-1 8 5 6 -9 -6 -0 -0 -2 0 -1 -1 -3 4 2 5 0 2 5 -3 -5 4 -2 1 0 1 -0 -0 -1 -1 -1 -1 -1 -1 -2 1 1 -1 -1 -1 -0 -1 -1 -1 -0 -1 -1 -1 -2
10 5 8 -0 -5 -6 -1 1 -2 -1 1 3 2 -2 2 0 0 4 -6 5 4 -2 -3 0 4 1 -0 -0 -2 -0 -0 -1 -1 -1 -1 -0 1 1 -0 -1 -1 -0 -1 -2 -0 -0 -1 -0 -1
8 6 -8 -2 -8 5 -9 -6 1 -3 0 2 0 -1 3 1 1 2 6 -2 2 -0 -4 2 2 -1 0 -0 -1 1 -0 -0 0 -1 -1 -0 -1 -1 0 -1 -1 -1 -1 -2 -0 -0 -1 -1 -1
10 10 4 -4 -3 -17 -8 4 -6 7 -7 13 -8 -2 0 -2 2 -1 2 2 8 -2 1 -1 -1 -0 -0 -0 -1 1 -0 -0 -1 1 0 -1 -1 -1 -1 -1 -1 -2 -1 -1 -1 -1 -1 -0 -1
-3 13 -0 -10 5 -15 -0 5 -3 1 4 -2 -8 10 1 -8 2 3 1 5 -3 12 2 1 -1 -0 0 -1 1 -0 -1 -2 -1 -0 1 1 -0 -1 -2 -1 -1 -2 -1 -2 -0 -1 1 -1 -3
6 6 -9 -6 -4 -5 -3 5 -0 4 2 5 2 5 -0 2 2 0 -2 2 0 4 4 2 0 0 1 -0 1 1 -0 -2 -1 -2 -0 2 1 1 -0 0 -1 0 0 -0 1 -1 -4 -2 -0
-3 -2 -4 -4 -1 6 0 4 2 3 4 -5 -6 3 1 2 3 1 3 -2 -1 4 3 0 1 -1 1 -1 1 2 1 -0 -1 -2 -1 0 -0 -1 -1 -2 -2 -2 -1 -1 1 -1 -1 -1 -0
7 -1 0 -2 2 -1 -0 2 2 1 3 13 16 -4 -0 -2 -0 -1 -1 2 -5 0 1 1 3 0 -0 1 2 -0 -1 1 -2 -1 0 -1 1 -0 -0 -0 -2 -1 -2 -1 -0 -2 -0 -0 -3
6 -1 3 -1 -2 -3 4 -4 -7 -0 -5 -3 8 1 3 7 2 0 -6 7 1 -1 5 0 -1 -0 1 0 1 -0 -2 0 -2 -1 -2 -0 0 -0 0 -1 -0 -2 -2 -2 -2 -1 -0 -0 -3
-2 -1 -1 -1 -2 -2 7 -6 18 -11 6 -2 7 2 2 -0 2 -4 2 -3 4 0 1 -1 -2 -0 4 3 1 -0 1 1 -1 -1 -4 -0 0 -2 0 -1 -2 -1 -1 -2 -1 -1 -1 -1 -2
-3 3 1 -2 -5 -4 3 4 -2 -14 18 0 7 -4 7 -4 3 -2 -3 -2 -7 5 -4 -3 -4 -1 -2 1 3 -2 -1 2 -2 -2 -2 -2 0 1 -2 -1 -1 -1 -1 -1 -1 -1 -2 -2 -1
5 4 1 -7 2 -11 12 -13 -6 -6 10 0 -1 -1 3 6 -1 -1 1 0 -3 -2 -4 1 -2 -2 -0 -1 -0 0 -3 0 1 -1 1 -0 -1 -1 0 -1 -1 -1 -1 -1 -1 -1 -1 -1 -1
2 -0 1 -2 -2 0 8 -5 -7 2 7 -1 -2 2 3 9 5 -3 1 -0 1 6 -1 0 -1 -1 2 1 -3 2 -4 -0 -1 -0 -0 0 0 -0 -0 1 -1 -1 -1 -2 -1 -1 -2 -2 -2
-1 3 1 -2 -1 8 2 -5 1 -3 2 -4 4 1 1 1 -5 3 13 16 8 1 3 -0 -2 -1 3 0 2 -1 -4 -2 -1 -0 -0 -0 1 0 0 0 1 -0 -1 -1 -1 -1 1 -1 -2
-0 2 1 -2 -1 6 -5 -1 -6 1 1 -0 5 2 2 -1 6 8 7 -4 5 4 2 5 -9 0 0 3 -1 0 -3 2 3 2 2 0 -1 -1 0 1 -0 0 0 -0 0 -2 -2 -1 -0
1 1 -4 -4 -1 7 0 -6 -4 -0 -2 -1 -1 4 1 4 3 2 1 -0 -1 2 5 1 -14 11 5 3 -2 -4 -5 1 1 3 1 3 -0 1 -1 -0 -2 -2 -1 -0 -1 -2 -3 1 -3
-1 2 -2 2 0 1 6 3 4 -7 -0 0 9 1 2 -8 5 1 6 -16 -0 9 -3 16 -36 13 -4 12 -4 -13 -1 1 3 -1 1 2 -2 2 -1 0 -0 -1 -3 -1 -2 0 -1 1 -0
2 1 1 1 4 -1 5 -4 1 -3 0 1 2 2 2 2 8 4 -3 4 -2 0 3 14 -4 -8 14 -2 11 -2 -3 -2 3 -0 -1 -1 1 2 -2 1 -0 -1 -1 -2 -1 -0 -0 -2 -2
-0 2 2 1 1 2 4 8 -15 5 3 -1 1 3 0 0 -17 14 -1 -10 -4 0 -1 4 -9 13 4 9 2 9 -1 -1 -0 -3 -0 -3 2 2 0 -2 -1 2 -3 -2 -1 -1 1 -2 0
1 2 2 2 2 3 -7 3 -8 -2 -10 0 2 2 -0 -1 4 4 -9 11 0 -9 -9 7 4 -3 3 12 3 4 -4 -2 2 -1 -3 2 -1 0 2 -3 -0 -1 -1 -3 1 -2 -0 -1 0
4 -5 0 4 4 1 0 5 -8 1 -1 -4 -4 -0 -1 -0 6 2 -0 -7 -4 -3 -8 -0 -1 -0 14 -1 -5 5 0 0 -6 1 -1 -2 -0 1 1 -1 -1 -1 -2 -1 0 -0 -1 -0 -1
-2 2 3 2 3 -2 1 -2 -7 0 -0 -1 4 -1 3 2 1 1 6 1 5 -9 -6 2 4 10 2 -4 6 -3 -1 1 -4 -2 1 -0 1 1 0 -0 -1 -2 0 -1 1 0 -1 0 0
5 3 2 3 0 4 -3 1 7 2 2 1 0 1 2 1 2 1 5 -1 9 -7 -11 -2 13 2 5 2 -1 0 -1 -1 0 -0 0 2 1 -0 -0 0 -2 -1 -3 -1 -1 -1 -1 -1 -3
6 4 4 1 1 -1 1 -1 -1 1 1 1 2 0 1 3 0 4 -0 -2 2 4 1 -2 4 5 -4 5 1 -1 1 0 1 3 -0 -1 1 -2 1 -3 -2 -3 -1 -3 -1 -1 -2 -2 -0
4 1 2 3 2 4 2 2 1 -3 -1 -1 -0 2 0 1 -0 2 2 -2 -0 2 5 6 5 2 -5 4 -0 1 2 1 1 2 1 -0 -1 -1 -1 1 -1 -3 -4 -3 -1 -0 -2 -1 -1
1 -1 2 8 -2 0 3 -2 0 -0 -1 -1 0 0 2 2 3 4 1 0 2 5 4 5 1 2 -1 3 0 0 3 1 -1 -1 -1 -0 1 0 0 -4 -4 -2 -3 0 2 -2 -1 -1 -1
Height
1511 1515 1517 1518 1517 1499 1492 1489 1478 1484 1485 1485 1487 1490 1491 1493 1495 1508 1514 1517 1519 1520 1523 1526 1529 1531 1533 1534 1536 1536 1537 1538 1538 1539 1539 1538 1538 1537 1537 1536 1535 1534 1533 1532 1531 1530 1529 1528 1527
1511 1515 1517 1512 1506 1495 1487 1479 1482 1484 1485 1489 1489 1494 1494 1499 1503 1506 1512 1517 1520 1521 1525 1527 1529 1532 1534 1535 1536 1537 1538 1538 1538 1539 1539 1539 1538 1538 1537 1536 1535 1534 1533 1532 1531 1529 1528 1527 1526
1509 1514 1514 1504 1495 1485 1479 1471 1480 1483 1489 1489 1491 1494 1496 1503 1505 1508 1513 1517 1519 1525 1527 1527 1530 1533 1534 1536 1537 1537 1538 1538 1539 1539 1539 1539 1538 1538 1538 1537 1536 1534 1533 1532 1530 1529 1527 1526 1525
1512 1514 1511 1493 1480 1479 1474 1471 1483 1485 1490 1490 1490 1494 1502 1504 1507 1509 1513 1516 1522 1526 1527 1528 1531 1533 1535 1536 1537 1538 1538 1538 1539 1539 1539 1539 1539 1538 1538 1537 1536 1535 1534 1532 1531 1529 1527 1526 1525
1510 1507 1499 1489 1482 1473 1470 1469 1478 1483 1487 1489 1492 1496 1503 1506 1506 1510 1514 1518 1522 1526 1526 1529 1531 1534 1535 1537 1538 1538 1538 1539 1539 1539 1539 1539 1539 1538 1538 1537 1536 1535 1534 1533 1531 1529 1527 1525 1524
1508 1501 1489 1483 1480 1475 1468 1470 1478 1482 1483 1488 1492 1496 1503 1504 1506 1508 1514 1520 1523 1525 1527 1529 1532 1534 1535 1537 1538 1538 1538 1539 1539 1539 1540 1540 1539 1539 1538 1538 1537 1536 1535 1533 1531 1529 1527 1525 1524
1503 1496 1486 1479 1479 1474 1469 1476 1479 1477 1480 1486 1489 1493 1502 1504 1506 1509 1516 1521 1524 1526 1528 1530 1532 1534 1536 1537 1538 1538 1539 1539 1540 1540 1540 1540 1540 1540 1539 1539 1538 1536 1535 1534 1532 1530 1528 1526 1524
1504 1498 1489 1482 1475 1472 1469 1475 1481 1477 1479 1483 1489 1490 1499 1500 1504 1510 1516 1521 1524 1525 1528 1530 1532 1534 1536 1537 1538 1539 1539 1540 1540 1540 1541 1541 1541 1541 1540 1539 1538 1537 1536 1534 1532 1530 1528 1526 1524
1503 1497 1490 1484 1479 1472 1470 1474 1481 1482 1481 1485 1488 1487 1488 1495 1503 1509 1514 1520 1522 1525 1527 1530 1533 1535 1536 1537 1538 1539 1540 1540 1541 1541 1541 1541 1541 1541 1540 1540 1539 1538 1536 1535 1533 1531 1529 1526 1524
1502 1494 1487 1480 1476 1479 1474 1476 1479 1485 1480 1483 1489 1491 1490 1495 1501 1505 1510 1516 1519 1523 1526 1530 1532 1535 1536 1538 1539 1539 1540 1541 1542 1542 1542 1543 1543 1542 1541 1540 1540 1539 1537 1535 1533 1531 1529 1527 1526
1498 1494 1486 1483 1485 1483 1482 1480 1479 1479 1477 1479 1485 1489 1491 1495 1500 1505 1510 1515 1518 1522 1526 1530 1532 1534 1537 1538 1539 1540 1541 1541 1542 1543 1543 1543 1543 1542 1541 1540 1539 1539 1537 1535 1534 1532 1530 1529 1527
1497 1494 1492 1488 1489 1491 1488 1483 1480 1483 1478 1478 1479 1487 1490 1495 1500 1504 1510 1514 1519 1522 1527 1529 1532 1534 1537 1538 1541 1540 1542 1542 1543 1543 1544 1544 1544 1543 1542 1541 1540 1539 1538 1536 1535 1533 1531 1530 1528
1495 1496 1492 1492 1492 1492 1489 1489 1485 1480 1482 1482 1481 1487 1489 1494 1499 1505 1511 1516 1518 1523 1526 1529 1532 1535 1537 1539 1540 1541 1542 1542 1543 1543 1544 1544 1544 1543 1542 1541 1540 1540 1538 1537 1535 1534 1532 1531 1529
1494 1495 1496 1494 1492 1493 1490 1486 1484 1482 1480 1482 1483 1486 1489 1493 1497 1505 1509 1513 1517 1522 1525 1528 1532 1535 1537 1538 1539 1541 1542 1542 1542 1543 1543 1544 1543 1543 1542 1541 1540 1540 1539 1537 1536 1534 1532 1531 1529
1495 1496 1495 1492 1489 1489 1489 1486 1478 1481 1478 1481 1483 1486 1488 1493 1496 1501 1505 1510 1515 1521 1524 1527 1531 1533 1536 1537 1539 1540 1541 1541 1542 1543 1543 1543 1543 1542 1542 1541 1541 1540 1539 1537 1536 1535 1533 1531 1530
1493 1495 1495 1484 1485 1487 1489 1479 1475 1477 1476 1479 1484 1487 1488 1492 1496 1499 1505 1508 1514 1520 1522 1526 1529 1532 1534 1536 1538 1539 1541 1542 1542 1542 1542 1542 1542 1542 1541 1541 1540 1539 1538 1537 1536 1534 1533 1531 1530
1492 1491 1492 1490 1478 1482 1485 1477 1466 1472 1473 1476 1481 1484 1487 1491 1493 1497 1504 1508 1513 1518 1519 1523 1527 1531 1533 1535 1536 1538 1540 1541 1541 1541 1541 1541 1541 1541 1541 1540 1540 1539 1538 1537 1536 1534 1532 1530 1529
1491 1485 1480 1481 1476 1479 1479 1477 1467 1473 1475 1474 1475 1482 1485 1488 1490 1496 1503 1507 1510 1513 1517 1521 1526 1530 1532 1533 1534 1536 1539 1540 1540 1540 1540 1540 1540 1540 1540 1540 1540 1539 1538 1537 1536 1534 1533 1530 1528
1483 1485 1480 1475 1474 1477 1478 1475 1472 1470 1475 1474 1471 1479 1484 1487 1491 1493 1499 1502 1506 1511 1515 1518 1523 1528 1530 1531 1532 1534 1538 1540 1540 1539 1539 1539 1539 1540 1540 1539 1539 1539 1538 1537 1535 1534 1532 1530 1527
1487 1486 1480 1475 1474 1477 1472 1473 1470 1467 1470 1470 1470 1476 1481 1482 1489 1492 1496 1501 1508 1511 1515 1518 1519 1523 1528 1529 1529 1534 1538 1539 1538 1537 1538 1538 1538 1538 1539 1539 1539 1539 1539 1537 1536 1533 1532 1530 1527
1484 1483 1480 1479 1474 1473 1471 1470 1470 1465 1468 1469 1467 1475 1479 1481 1483 1489 1494 1498 1507 1508 1511 1512 1520 1523 1527 1522 1523 1531 1536 1537 1537 1536 1538 1537 1537 1537 1539 1539 1538 1537 1537 1536 1535 1533 1531 1530 1528
1491 1479 1480 1477 1475 1473 1466 1475 1464 1462 1463 1467 1470 1475 1478 1480 1485 1487 1492 1498 1501 1508 1512 1509 1519 1523 1523 1523 1527 1528 1532 1534 1534 1535 1537 1536 1536 1537 1537 1537 1538 1536 1535 1535 1534 1533 1531 1529 1528
1488 1483 1480 1476 1473 1470 1467 1473 1450 1455 1459 1463 1466 1473 1477 1481 1485 1478 1488 1496 1500 1505 1509 1514 1516 1520 1522 1523 1524 1526 1528 1531 1531 1533 1535 1536 1536 1536 1536 1536 1536 1535 1533 1534 1533 1532 1530 1529 1527
1486 1480 1477 1474 1475 1483 1462 1466 1456 1451 1453 1458 1462 1469 1474 1479 1482 1481 1492 1493 1496 1500 1507 1513 1516 1518 1521 1522 1523 1523 1525 1529 1530 1532 1534 1535 1535 1535 1534 1534 1535 1533 1532 1533 1531 1530 1529 1527 1526
1485 1486 1486 1486 1485 1482 1462 1467 1449 1445 1449 1451 1459 1465 1472 1477 1479 1480 1480 1487 1489 1495 1509 1513 1514 1519 1517 1517 1522 1521 1523 1525 1528 1531 1533 1534 1534 1533 1532 1533 1532 1532 1531 1531 1529 1528 1527 1525 1523
1480 1478 1484 1488 1472 1475 1473 1468 1452 1451 1457 1459 1459 1466 1471 1475 1477 1478 1482 1482 1487 1497 1507 1513 1515 1517 1512 1515 1519 1520 1523 1524 1526 1530 1532 1533 1533 1531 1531 1530 1529 1530 1529 1529 1527 1525 1524 1523 1521
1475 1481 1476 1478 1469 1468 1459 1453 1456 1458 1461 1462 1464 1468 1471 1475 1478 1480 1482 1486 1489 1500 1504 1515 1513 1513 1513 1514 1517 1520 1522 1524 1526 1527 1530 1530 1530 1529 1528 1528 1527 1527 1527 1526 1525 1523 1521 1519 1518
1479 1477 1476 1473 1477 1467 1453 1452 1451 1462 1456 1460 1464 1467 1471 1476 1480 1484 1486 1490 1496 1500 1503 1510 1513 1511 1513 1515 1516 1520 1522 1524 1526 1526 1526 1528 1527 1527 1526 1525 1525 1525 1524 1523 1522 1519 1517 1516 1514
1478 1473 1473 1469 1465 1463 1451 1447 1451 1455 1454 1458 1461 1465 1472 1478 1482 1485 1489 1492 1496 1502 1505 1508 1509 1510 1513 1516 1516 1519 1522 1523 1524 1524 1524 1525 1525 1525 1524 1522 1521 1522 1521 1520 1518 1515 1513 1512 1509
1476 1472 1470 1466 1460 1457 1459 1454 1457 1457 1459 1460 1463 1467 1472 1478 1483 1486 1490 1493 1499 1501 1503 1505 1507 1510 1512 1517 1515 1519 1520 1521 1522 1523 1523 1524 1524 1522 1521 1519 1519 1519 1517 1516 1512 1510 1508 1506 1503